EZS81DV DTNH-LSGG

Flight info

Callsign EZS81DV
Flight time 1h 52m
Altitude 36000
Route VAXAL1D VAXAL A411 TUC UM733 OSMAR DCT PIRIX DCT GIGGI DCT UPDUT DCT CORSI DCT OMEDA DCT MERLU DCT PIGOS/N0413F300 DCT BARSO/N0395F280 DCT IRMAR DCT KINES
Aircraft A320/M-SDE2E3FGHIJ1RWXYZ/LB1

Departure

Time 2026-04-16 08:02
Airport Enfidha - Hammamet International Airport (DTNH)

Arrival

Time 2026-04-16 09:55
Airport Geneva International Airport (LSGG)
Time Latitude Longitude Altitude Speed Heading
2026-04-16 07:45 36.08199 10.43738 25 ft 0 kts 64°
2026-04-16 07:52 36.08195 10.43727 31 ft 2 kts 64°
2026-04-16 07:52 36.08188 10.43710 31 ft 2 kts 64°
2026-04-16 07:52 36.08182 10.43689 28 ft 3 kts 95°
2026-04-16 07:52 36.08185 10.43674 27 ft 3 kts 120°
2026-04-16 07:53 36.08186 10.43670 28 ft 0 kts 128°
2026-04-16 07:53 36.08182 10.43676 27 ft 1 kts 133°
2026-04-16 07:53 36.08175 10.43683 29 ft 1 kts 139°
2026-04-16 07:54 36.08167 10.43690 28 ft 1 kts 146°
2026-04-16 07:54 36.08157 10.43696 25 ft 2 kts 154°
2026-04-16 07:54 36.08144 10.43702 27 ft 2 kts 163°
2026-04-16 07:54 36.08134 10.43704 26 ft 1 kts 171°
2026-04-16 07:55 36.08127 10.43705 25 ft 1 kts 175°
2026-04-16 07:55 36.08125 10.43705 25 ft 0 kts 176°
2026-04-16 07:58 36.08100 10.43727 27 ft 10 kts 124°
2026-04-16 07:58 36.08010 10.43787 27 ft 20 kts 173°
2026-04-16 07:59 36.07834 10.43791 28 ft 30 kts 180°
2026-04-16 07:59 36.07745 10.43866 28 ft 10 kts 75°
2026-04-16 07:59 36.07748 10.44016 25 ft 24 kts 89°
2026-04-16 07:59 36.07746 10.44246 25 ft 25 kts 90°
2026-04-16 08:00 36.07748 10.44498 24 ft 31 kts 89°
2026-04-16 08:00 36.07742 10.44780 26 ft 34 kts 92°
2026-04-16 08:00 36.07745 10.45075 23 ft 36 kts 87°
2026-04-16 08:00 36.07746 10.45380 23 ft 28 kts 96°
2026-04-16 08:01 36.07700 10.45514 22 ft 11 kts 171°
2026-04-16 08:01 36.07625 10.45516 22 ft 10 kts 179°
2026-04-16 08:01 36.07571 10.45457 22 ft 13 kts 252°
2026-04-16 08:01 36.07567 10.45284 23 ft 42 kts 271°
2026-04-16 08:02 36.07576 10.44620 25 ft 107 kts 266°
2026-04-16 08:02 36.07582 10.42147 544 ft 156 kts 272°
2026-04-16 08:02 36.07580 10.40802 1074 ft 158 kts 288°
2026-04-16 08:03 36.08187 10.39767 1489 ft 149 kts 344°
2026-04-16 08:03 36.09170 10.39699 2133 ft 143 kts 10°
2026-04-16 08:03 36.10108 10.40132 2718 ft 147 kts 30°
2026-04-16 08:03 36.10831 10.41059 3248 ft 157 kts 56°
2026-04-16 08:04 36.11364 10.42299 3654 ft 170 kts 57°
2026-04-16 08:04 36.11957 10.43642 4008 ft 186 kts 56°
2026-04-16 08:04 36.12837 10.44858 4354 ft 199 kts 30°
2026-04-16 08:04 36.14177 10.45462 4799 ft 214 kts 15°
2026-04-16 08:05 36.15674 10.45935 5258 ft 231 kts 15°
2026-04-16 08:05 36.17286 10.46445 5788 ft 246 kts 15°
2026-04-16 08:05 36.18969 10.46974 6557 ft 251 kts 16°
2026-04-16 08:05 36.20673 10.47510 7341 ft 254 kts 16°
2026-04-16 08:06 36.22391 10.48055 8115 ft 257 kts 16°
2026-04-16 08:06 36.24132 10.48610 8879 ft 261 kts 16°
2026-04-16 08:06 36.25901 10.49175 9650 ft 264 kts 16°
2026-04-16 08:06 36.27720 10.49592 10376 ft 269 kts
2026-04-16 08:07 36.29600 10.49390 11054 ft 276 kts 350°
2026-04-16 08:07 36.31453 10.48589 11593 ft 289 kts 342°
2026-04-16 08:07 36.33378 10.47659 11928 ft 306 kts 342°
2026-04-16 08:07 36.35419 10.46675 12258 ft 322 kts 342°
2026-04-16 08:08 36.37544 10.45653 12740 ft 331 kts 342°
2026-04-16 08:08 36.39708 10.44611 13407 ft 335 kts 342°
2026-04-16 08:08 36.41896 10.43572 14066 ft 339 kts 342°
2026-04-16 08:08 36.44104 10.42532 14670 ft 341 kts 342°
2026-04-16 08:09 36.46339 10.41483 15276 ft 344 kts 342°
2026-04-16 08:09 36.48584 10.40425 15861 ft 347 kts 342°
2026-04-16 08:09 36.50853 10.39355 16452 ft 350 kts 342°
2026-04-16 08:09 36.53103 10.38293 17017 ft 352 kts 342°
2026-04-16 08:10 36.55402 10.37210 17587 ft 355 kts 342°
2026-04-16 08:10 36.57720 10.36117 18148 ft 358 kts 342°
2026-04-16 08:10 36.60056 10.35014 18680 ft 360 kts 342°
2026-04-16 08:10 36.62410 10.33903 19189 ft 363 kts 342°
2026-04-16 08:11 36.64773 10.32785 19708 ft 365 kts 342°
2026-04-16 08:11 36.67150 10.31658 20217 ft 367 kts 342°
2026-04-16 08:11 36.69545 10.30521 20726 ft 369 kts 342°
2026-04-16 08:11 36.71952 10.29379 21238 ft 372 kts 342°
2026-04-16 08:12 36.74379 10.28228 21739 ft 374 kts 342°
2026-04-16 08:12 36.76819 10.27072 22225 ft 376 kts 342°
2026-04-16 08:12 36.79276 10.25908 22716 ft 379 kts 342°
2026-04-16 08:12 36.81748 10.24733 23189 ft 381 kts 342°
2026-04-16 08:13 36.84235 10.23550 23644 ft 384 kts 342°
2026-04-16 08:13 36.86789 10.22595 24028 ft 383 kts 348°
2026-04-16 08:13 36.89385 10.21792 24413 ft 385 kts 349°
2026-04-16 08:13 36.91990 10.20987 24799 ft 387 kts 348°
2026-04-16 08:14 36.94606 10.20174 25174 ft 388 kts 348°
2026-04-16 08:14 36.97228 10.19356 25546 ft 389 kts 348°
2026-04-16 08:14 36.99828 10.18543 25908 ft 391 kts 348°
2026-04-16 08:14 37.02468 10.17720 26264 ft 392 kts 348°
2026-04-16 08:15 37.05123 10.16894 26617 ft 393 kts 348°
2026-04-16 08:15 37.07782 10.16067 26962 ft 395 kts 348°
2026-04-16 08:15 37.10451 10.15233 27307 ft 396 kts 348°
2026-04-16 08:15 37.13131 10.14396 27632 ft 398 kts 348°
2026-04-16 08:16 37.15817 10.13557 27986 ft 399 kts 348°
2026-04-16 08:16 37.18517 10.12711 28317 ft 400 kts 348°
2026-04-16 08:16 37.21222 10.11862 28638 ft 402 kts 348°
2026-04-16 08:16 37.23940 10.11008 28957 ft 403 kts 348°
2026-04-16 08:17 37.26668 10.10153 29261 ft 405 kts 348°
2026-04-16 08:17 37.29403 10.09294 29546 ft 406 kts 348°
2026-04-16 08:17 37.32146 10.08431 29830 ft 407 kts 348°
2026-04-16 08:17 37.34895 10.07567 30114 ft 408 kts 348°
2026-04-16 08:18 37.37656 10.06698 30342 ft 409 kts 348°
2026-04-16 08:19 37.57044 10.00583 32084 ft 408 kts 348°
2026-04-16 08:20 37.59789 9.99712 32359 ft 407 kts 348°
2026-04-16 08:20 37.62529 9.98842 32639 ft 406 kts 348°
2026-04-16 08:20 37.65264 9.97976 32925 ft 404 kts 348°
2026-04-16 08:20 37.67989 9.97113 33198 ft 403 kts 348°
2026-04-16 08:21 37.70707 9.96250 33475 ft 402 kts 348°
2026-04-16 08:21 37.73419 9.95389 33750 ft 401 kts 348°
2026-04-16 08:21 37.76124 9.94530 34031 ft 400 kts 348°
2026-04-16 08:21 37.78819 9.93676 34277 ft 399 kts 348°
2026-04-16 08:22 37.81510 9.92822 34494 ft 398 kts 348°
2026-04-16 08:22 37.84193 9.91970 34694 ft 398 kts 348°
2026-04-16 08:22 37.86845 9.91123 34869 ft 398 kts 348°
2026-04-16 08:22 37.89561 9.90254 35056 ft 398 kts 348°
2026-04-16 08:23 37.92240 9.89394 35205 ft 397 kts 348°
2026-04-16 08:23 37.94888 9.88548 35389 ft 397 kts 348°
2026-04-16 08:23 37.97600 9.87682 35549 ft 397 kts 348°
2026-04-16 08:23 38.00245 9.86836 35703 ft 397 kts 347°
2026-04-16 08:24 38.02922 9.85976 35851 ft 397 kts 347°
2026-04-16 08:24 38.05601 9.85116 36019 ft 397 kts 347°
2026-04-16 08:24 38.10931 9.83410 36121 ft 393 kts 347°
2026-04-16 08:25 38.16237 9.81701 36122 ft 393 kts 347°
2026-04-16 08:25 38.21542 9.79993 36121 ft 393 kts 348°
2026-04-16 08:26 38.26842 9.78283 36123 ft 393 kts 348°
2026-04-16 08:26 38.32145 9.76577 36125 ft 393 kts 348°
2026-04-16 08:27 38.37456 9.74875 36139 ft 393 kts 348°
2026-04-16 08:27 38.42759 9.73175 36138 ft 393 kts 348°
2026-04-16 08:28 38.48065 9.71474 36133 ft 393 kts 348°
2026-04-16 08:28 38.53367 9.69765 36131 ft 393 kts 348°
2026-04-16 08:29 38.58668 9.68050 36134 ft 393 kts 348°
2026-04-16 08:29 38.63967 9.66336 36139 ft 393 kts 348°
2026-04-16 08:30 38.69272 9.64622 36137 ft 393 kts 348°
2026-04-16 08:30 38.73682 9.63195 36136 ft 393 kts 348°
2026-04-16 08:31 38.78989 9.61481 36139 ft 393 kts 348°
2026-04-16 08:31 38.85155 9.59465 36135 ft 394 kts 348°
2026-04-16 08:32 38.89605 9.58007 36136 ft 394 kts 348°
2026-04-16 08:32 38.94925 9.56333 36133 ft 394 kts 349°
2026-04-16 08:33 39.00265 9.54756 36133 ft 394 kts 349°
2026-04-16 08:33 39.05577 9.53196 36133 ft 394 kts 349°
2026-04-16 08:34 39.10921 9.51595 36131 ft 394 kts 349°
2026-04-16 08:34 39.16262 9.49970 36132 ft 395 kts 349°
2026-04-16 08:35 39.21608 9.48347 36131 ft 395 kts 349°
2026-04-16 08:35 39.26957 9.46720 36132 ft 395 kts 349°
2026-04-16 08:36 39.32305 9.45096 36132 ft 395 kts 349°
2026-04-16 08:36 39.37659 9.43467 36130 ft 395 kts 349°
2026-04-16 08:37 39.43016 9.41843 36128 ft 396 kts 349°
2026-04-16 08:37 39.48379 9.40212 36127 ft 396 kts 349°
2026-04-16 08:38 39.53743 9.38578 36124 ft 396 kts 349°
2026-04-16 08:38 39.59104 9.36942 36127 ft 396 kts 349°
2026-04-16 08:39 39.64476 9.35290 36129 ft 397 kts 349°
2026-04-16 08:39 39.69858 9.33629 36131 ft 397 kts 349°
2026-04-16 08:40 39.75244 9.31976 36129 ft 398 kts 349°
2026-04-16 08:40 39.80607 9.30321 36135 ft 399 kts 349°
2026-04-16 08:41 39.86013 9.28650 36140 ft 399 kts 349°
2026-04-16 08:41 39.91415 9.26981 36143 ft 400 kts 349°
2026-04-16 08:42 39.96832 9.25316 36147 ft 400 kts 349°
2026-04-16 08:42 40.02251 9.23644 36132 ft 401 kts 349°
2026-04-16 08:43 40.07689 9.21957 36141 ft 401 kts 349°
2026-04-16 08:43 40.13119 9.20271 36139 ft 402 kts 349°
2026-04-16 08:44 40.18558 9.18578 36124 ft 402 kts 349°
2026-04-16 08:44 40.24005 9.16873 36127 ft 403 kts 349°
2026-04-16 08:45 40.29467 9.15165 36130 ft 404 kts 349°
2026-04-16 08:45 40.34934 9.13446 36126 ft 404 kts 349°
2026-04-16 08:46 40.40406 9.11727 36134 ft 405 kts 348°
2026-04-16 08:46 40.45886 9.10011 36140 ft 405 kts 349°
2026-04-16 08:47 40.51341 9.08301 36136 ft 406 kts 348°
2026-04-16 08:47 40.56867 9.06560 36145 ft 406 kts 348°
2026-04-16 08:48 40.62331 9.04838 36144 ft 407 kts 348°
2026-04-16 08:48 40.67845 9.03088 36144 ft 408 kts 348°
2026-04-16 08:49 40.73363 9.01337 36143 ft 408 kts 348°
2026-04-16 08:49 40.78887 8.99589 36140 ft 409 kts 348°
2026-04-16 08:50 40.84425 8.97833 36134 ft 409 kts 348°
2026-04-16 08:50 40.89968 8.96063 36131 ft 410 kts 348°
2026-04-16 08:51 40.95518 8.94291 36127 ft 410 kts 348°
2026-04-16 08:51 41.01038 8.92534 36123 ft 411 kts 348°
2026-04-16 08:52 41.06630 8.90742 36119 ft 411 kts 348°
2026-04-16 08:52 41.12159 8.88976 36116 ft 412 kts 348°
2026-04-16 08:53 41.17733 8.87187 36113 ft 412 kts 348°
2026-04-16 08:53 41.23311 8.85386 36113 ft 413 kts 348°
2026-04-16 08:54 41.28865 8.83382 36121 ft 414 kts 344°
2026-04-16 08:54 41.34339 8.80940 36117 ft 415 kts 342°
2026-04-16 08:55 41.39790 8.78387 36113 ft 416 kts 342°
2026-04-16 08:55 41.45269 8.75889 36113 ft 416 kts 343°
2026-04-16 08:56 41.50773 8.73438 36125 ft 417 kts 343°
2026-04-16 08:56 41.56278 8.70985 36127 ft 417 kts 343°
2026-04-16 08:57 41.61783 8.68517 36120 ft 417 kts 342°
2026-04-16 08:57 41.67293 8.66042 36114 ft 419 kts 342°
2026-04-16 08:58 41.72778 8.63577 36120 ft 419 kts 342°
2026-04-16 08:58 41.78306 8.61077 36119 ft 419 kts 342°
2026-04-16 08:59 41.83836 8.58572 36122 ft 420 kts 342°
2026-04-16 08:59 41.89375 8.56064 36128 ft 420 kts 342°
2026-04-16 09:00 41.94913 8.53549 36126 ft 420 kts 342°
2026-04-16 09:00 42.00457 8.51033 36125 ft 420 kts 342°
2026-04-16 09:01 42.08770 8.47253 36117 ft 421 kts 342°
2026-04-16 09:02 42.14320 8.44716 36107 ft 421 kts 342°
2026-04-16 09:02 42.19866 8.42173 36107 ft 421 kts 341°
2026-04-16 09:03 42.25387 8.39639 36118 ft 422 kts 341°
2026-04-16 09:03 42.30948 8.37088 36123 ft 422 kts 341°
2026-04-16 09:04 42.36253 8.33694 36122 ft 423 kts 331°
2026-04-16 09:04 42.41408 8.29833 36127 ft 424 kts 331°
2026-04-16 09:05 42.46566 8.25968 36129 ft 424 kts 331°
2026-04-16 09:05 42.51722 8.22089 36139 ft 424 kts 331°
2026-04-16 09:06 42.56886 8.18197 36137 ft 424 kts 331°
2026-04-16 09:06 42.62052 8.14303 36136 ft 425 kts 331°
2026-04-16 09:07 42.67216 8.10412 36132 ft 425 kts 331°
2026-04-16 09:07 42.72384 8.06502 36128 ft 425 kts 330°
2026-04-16 09:08 42.77550 8.02579 36135 ft 425 kts 330°
2026-04-16 09:08 42.82717 7.98657 36143 ft 425 kts 330°
2026-04-16 09:09 42.87887 7.94733 36135 ft 425 kts 330°
2026-04-16 09:09 42.93051 7.90793 36144 ft 425 kts 330°
2026-04-16 09:10 42.98173 7.86871 36144 ft 425 kts 330°
2026-04-16 09:10 43.03331 7.82917 36148 ft 425 kts 330°
2026-04-16 09:11 43.08491 7.78968 36150 ft 425 kts 330°
2026-04-16 09:11 43.13642 7.75008 36155 ft 425 kts 330°
2026-04-16 09:12 43.18780 7.71026 36159 ft 424 kts 330°
2026-04-16 09:12 43.23913 7.67039 36158 ft 424 kts 330°
2026-04-16 09:13 43.29045 7.63052 36159 ft 423 kts 330°
2026-04-16 09:13 43.34171 7.59083 36156 ft 423 kts 330°
2026-04-16 09:14 43.39288 7.55101 36150 ft 423 kts 330°
2026-04-16 09:14 43.44400 7.51099 36154 ft 422 kts 330°
2026-04-16 09:15 43.49476 7.47137 36151 ft 422 kts 330°
2026-04-16 09:15 43.54578 7.43134 36149 ft 422 kts 329°
2026-04-16 09:16 43.59676 7.39128 36151 ft 422 kts 329°
2026-04-16 09:16 43.64736 7.35028 36152 ft 421 kts 327°
2026-04-16 09:17 43.69619 7.30551 36155 ft 421 kts 325°
2026-04-16 09:17 43.74446 7.25978 36156 ft 421 kts 325°
2026-04-16 09:18 43.79298 7.21455 36156 ft 421 kts 326°
2026-04-16 09:18 43.84175 7.16979 36160 ft 420 kts 326°
2026-04-16 09:19 43.89047 7.12519 36160 ft 420 kts 326°
2026-04-16 09:19 43.93910 7.08043 36161 ft 419 kts 325°
2026-04-16 09:20 43.98756 7.03554 36169 ft 419 kts 325°
2026-04-16 09:20 44.03569 6.99080 36167 ft 418 kts 325°
2026-04-16 09:21 44.08407 6.94587 36167 ft 418 kts 325°
2026-04-16 09:21 44.13363 6.90374 36159 ft 418 kts 335°
2026-04-16 09:22 44.18986 6.88323 36157 ft 422 kts 352°
2026-04-16 09:22 44.24830 6.87469 36158 ft 422 kts 352°
2026-04-16 09:23 44.30659 6.86582 36166 ft 422 kts 352°
2026-04-16 09:23 44.36497 6.85691 36173 ft 421 kts 352°
2026-04-16 09:24 44.42227 6.84820 36174 ft 421 kts 352°
2026-04-16 09:24 44.47067 6.84080 36172 ft 421 kts 352°
2026-04-16 09:25 44.52890 6.83192 36174 ft 421 kts 352°
2026-04-16 09:25 44.59652 6.82163 36173 ft 421 kts 352°
2026-04-16 09:26 44.65471 6.81273 36179 ft 420 kts 352°
2026-04-16 09:26 44.70343 6.80523 36176 ft 420 kts 351°
2026-04-16 09:27 44.76152 6.79625 36176 ft 420 kts 352°
2026-04-16 09:27 44.81878 6.78804 36180 ft 406 kts 353°
2026-04-16 09:27 44.84680 6.78564 36186 ft 391 kts 355°
2026-04-16 09:28 44.87371 6.78409 36187 ft 395 kts 355°
2026-04-16 09:28 44.92947 6.78146 36192 ft 407 kts 355°
2026-04-16 09:29 44.98683 6.77826 36194 ft 417 kts 355°
2026-04-16 09:29 45.04509 6.77439 36195 ft 420 kts 355°
2026-04-16 09:29 45.07436 6.77240 35965 ft 421 kts 355°
2026-04-16 09:30 45.10355 6.77042 35716 ft 419 kts 355°
2026-04-16 09:30 45.13265 6.76846 35471 ft 417 kts 355°
2026-04-16 09:30 45.16161 6.76653 35231 ft 416 kts 355°
2026-04-16 09:30 45.19041 6.76465 34990 ft 414 kts 355°
2026-04-16 09:31 45.21905 6.76278 34685 ft 409 kts 355°
2026-04-16 09:31 45.24735 6.76094 34199 ft 405 kts 355°
2026-04-16 09:31 45.27539 6.75910 33678 ft 401 kts 355°
2026-04-16 09:31 45.30317 6.75722 33192 ft 397 kts 355°
2026-04-16 09:32 45.33056 6.75489 32697 ft 391 kts 350°
2026-04-16 09:32 45.35715 6.74830 32209 ft 386 kts 347°
2026-04-16 09:32 45.38347 6.74106 31736 ft 384 kts 347°
2026-04-16 09:32 45.40957 6.73395 31269 ft 381 kts 347°
2026-04-16 09:33 45.43554 6.72691 30808 ft 378 kts 347°
2026-04-16 09:33 45.46133 6.71994 30351 ft 376 kts 347°
2026-04-16 09:33 45.48689 6.71305 29878 ft 372 kts 347°
2026-04-16 09:33 45.51224 6.70621 29437 ft 368 kts 347°
2026-04-16 09:34 45.53691 6.69954 29018 ft 364 kts 347°
2026-04-16 09:34 45.56167 6.69299 28596 ft 360 kts 347°
2026-04-16 09:34 45.58618 6.68664 28183 ft 356 kts 347°
2026-04-16 09:34 45.61038 6.68044 27767 ft 352 kts 348°
2026-04-16 09:35 45.63432 6.67430 27363 ft 347 kts 348°
2026-04-16 09:35 45.65788 6.66822 26952 ft 342 kts 348°
2026-04-16 09:35 45.68120 6.66220 26548 ft 339 kts 348°
2026-04-16 09:35 45.70432 6.65622 26132 ft 336 kts 348°
2026-04-16 09:36 45.72727 6.65026 25707 ft 333 kts 348°
2026-04-16 09:36 45.75000 6.64435 25297 ft 331 kts 348°
2026-04-16 09:36 45.77261 6.63835 24865 ft 330 kts 347°
2026-04-16 09:36 45.79510 6.63228 24433 ft 328 kts 347°
2026-04-16 09:37 45.81748 6.62615 23997 ft 327 kts 347°
2026-04-16 09:37 45.83979 6.62002 23530 ft 326 kts 347°
2026-04-16 09:37 45.86202 6.61394 23084 ft 324 kts 347°
2026-04-16 09:37 45.88403 6.60797 22659 ft 321 kts 348°
2026-04-16 09:38 45.90590 6.60206 22243 ft 319 kts 348°
2026-04-16 09:38 45.92763 6.59618 21835 ft 316 kts 348°
2026-04-16 09:38 45.94918 6.59034 21428 ft 314 kts 348°
2026-04-16 09:38 45.97059 6.58450 21030 ft 313 kts 348°
2026-04-16 09:39 45.99193 6.57868 20630 ft 312 kts 348°
2026-04-16 09:39 46.01322 6.57289 20231 ft 311 kts 347°
2026-04-16 09:39 46.03384 6.56397 19840 ft 309 kts 334°
2026-04-16 09:39 46.05229 6.54850 19448 ft 307 kts 321°
2026-04-16 09:40 46.06777 6.52736 19049 ft 307 kts 309°
2026-04-16 09:40 46.07995 6.50265 18657 ft 307 kts 304°
2026-04-16 09:40 46.09193 6.47721 18235 ft 307 kts 304°
2026-04-16 09:40 46.10396 6.45183 17850 ft 305 kts 304°
2026-04-16 09:41 46.11586 6.42667 17467 ft 304 kts 304°
2026-04-16 09:41 46.12774 6.40151 17095 ft 303 kts 304°
2026-04-16 09:41 46.13949 6.37657 16731 ft 302 kts 304°
2026-04-16 09:41 46.15135 6.35138 16360 ft 302 kts 304°
2026-04-16 09:42 46.16315 6.32630 15958 ft 303 kts 304°
2026-04-16 09:42 46.17462 6.30080 15550 ft 303 kts 296°
2026-04-16 09:42 46.18070 6.27191 15154 ft 304 kts 276°
2026-04-16 09:42 46.17905 6.24156 14757 ft 306 kts 255°
2026-04-16 09:43 46.16979 6.21400 14370 ft 309 kts 234°
2026-04-16 09:43 46.15516 6.19124 13966 ft 311 kts 227°
2026-04-16 09:43 46.14003 6.16900 13582 ft 310 kts 227°
2026-04-16 09:43 46.12503 6.14693 13262 ft 307 kts 227°
2026-04-16 09:44 46.11012 6.12496 12871 ft 305 kts 227°
2026-04-16 09:44 46.09528 6.10301 12504 ft 304 kts 227°
2026-04-16 09:44 46.08053 6.08130 12025 ft 301 kts 227°
2026-04-16 09:44 46.06595 6.06017 11539 ft 296 kts 226°
2026-04-16 09:45 46.05143 6.03928 11126 ft 295 kts 226°
2026-04-16 09:45 46.03694 6.01852 10711 ft 293 kts 226°
2026-04-16 09:45 46.02252 5.99782 10304 ft 292 kts 225°
2026-04-16 09:45 46.00814 5.97717 9871 ft 292 kts 225°
2026-04-16 09:46 45.99389 5.95674 9425 ft 285 kts 225°
2026-04-16 09:46 45.98011 5.93695 8979 ft 275 kts 225°
2026-04-16 09:46 45.96680 5.91790 8545 ft 267 kts 225°
2026-04-16 09:46 45.95431 5.89832 8105 ft 266 kts 240°
2026-04-16 09:47 45.94855 5.87442 7694 ft 252 kts 270°
2026-04-16 09:47 45.95129 5.85051 7319 ft 237 kts 293°
2026-04-16 09:47 45.95800 5.82934 7246 ft 233 kts 311°
2026-04-16 09:47 45.96988 5.81395 7227 ft 230 kts 334°
2026-04-16 09:48 45.98489 5.80737 7111 ft 226 kts 352°
2026-04-16 09:48 46.00036 5.80338 7015 ft 225 kts 352°
2026-04-16 09:48 46.01588 5.80263 6981 ft 224 kts 11°
2026-04-16 09:48 46.03054 5.80972 6982 ft 223 kts 30°
2026-04-16 09:49 46.04255 5.82382 6966 ft 225 kts 45°
2026-04-16 09:49 46.05384 5.84027 6415 ft 237 kts 44°
2026-04-16 09:49 46.06546 5.85707 6009 ft 235 kts 44°
2026-04-16 09:49 46.07684 5.87360 5652 ft 229 kts 44°
2026-04-16 09:50 46.08771 5.88940 5362 ft 216 kts 44°
2026-04-16 09:50 46.09802 5.90440 5075 ft 204 kts 44°
2026-04-16 09:50 46.10777 5.91858 4814 ft 196 kts 45°
2026-04-16 09:50 46.11716 5.93226 4564 ft 187 kts 44°
2026-04-16 09:51 46.12606 5.94522 4300 ft 177 kts 44°
2026-04-16 09:51 46.13449 5.95751 4059 ft 168 kts 45°
2026-04-16 09:51 46.14252 5.96923 3851 ft 160 kts 45°
2026-04-16 09:51 46.15037 5.98067 3634 ft 162 kts 44°
2026-04-16 09:52 46.15815 5.99201 3433 ft 154 kts 44°
2026-04-16 09:52 46.16541 6.00263 3236 ft 147 kts 44°
2026-04-16 09:52 46.17256 6.01306 3007 ft 147 kts 44°
2026-04-16 09:52 46.17972 6.02353 2816 ft 146 kts 45°
2026-04-16 09:53 46.18686 6.03396 2604 ft 146 kts 45°
2026-04-16 09:53 46.19397 6.04436 2425 ft 146 kts 45°
2026-04-16 09:53 46.20098 6.05462 2218 ft 144 kts 46°
2026-04-16 09:53 46.20789 6.06507 2011 ft 143 kts 45°
2026-04-16 09:54 46.21494 6.07516 1820 ft 143 kts 44°
2026-04-16 09:54 46.22183 6.08544 1629 ft 142 kts 43°
2026-04-16 09:54 46.22890 6.09563 1452 ft 141 kts 44°
2026-04-16 09:54 46.23534 6.10489 1406 ft 110 kts 46°
2026-04-16 09:55 46.23939 6.11088 1407 ft 62 kts 46°
2026-04-16 09:55 46.24124 6.11355 1399 ft 22 kts 45°
2026-04-16 09:55 46.24237 6.11514 1387 ft 23 kts 58°
2026-04-16 09:55 46.24313 6.11726 1383 ft 12 kts 68°
2026-04-16 09:56 46.24329 6.11812 1386 ft 9 kts 75°
2026-04-16 09:56 46.24342 6.11906 1382 ft 10 kts 92°
2026-04-16 09:56 46.24304 6.11962 1383 ft 5 kts 208°
2026-04-16 09:56 46.24279 6.11921 1381 ft 8 kts 226°
2026-04-16 09:57 46.24230 6.11850 1384 ft 10 kts 225°
2026-04-16 09:57 46.24183 6.11781 1384 ft 9 kts 226°
2026-04-16 09:57 46.24145 6.11723 1382 ft 6 kts 226°
2026-04-16 09:57 46.24125 6.11693 1385 ft 2 kts 226°
2026-04-16 09:58 46.24106 6.11666 1388 ft 7 kts 225°
2026-04-16 09:58 46.24064 6.11604 1386 ft 12 kts 226°
2026-04-16 09:58 46.24002 6.11514 1389 ft 13 kts 225°
2026-04-16 09:58 46.23944 6.11426 1396 ft 11 kts 227°
2026-04-16 09:59 46.23894 6.11354 1396 ft 9 kts 225°
2026-04-16 09:59 46.23846 6.11284 1400 ft 10 kts 224°
2026-04-16 09:59 46.23794 6.11210 1396 ft 10 kts 225°
2026-04-16 09:59 46.23749 6.11144 1398 ft 9 kts 226°
2026-04-16 10:00 46.23708 6.11084 1400 ft 9 kts 220°
2026-04-16 10:00 46.23645 6.11102 1398 ft 12 kts 140°
2026-04-16 10:00 46.23572 6.11149 1392 ft 12 kts 214°
2026-04-16 10:01 46.23425 6.10949 1401 ft 19 kts 222°
2026-04-16 10:01 46.23337 6.10823 1402 ft 13 kts 225°
2026-04-16 10:01 46.23265 6.10770 1400 ft 11 kts 199°
2026-04-16 10:01 46.23204 6.10715 1408 ft 7 kts 225°
2026-04-16 10:02 46.23172 6.10718 1406 ft 6 kts 150°
2026-04-16 10:02 46.23156 6.10739 1406 ft 2 kts 137°
2026-04-16 10:02 46.23155 6.10740 1406 ft 0 kts 137°